Location: �bnet
(46.9957°N, 8.4908°E)
Time: 09:39:52
(UTC+00:00)

Cosmos 1709 Rocket - Pass Details

Date: 11 May 2021
Orbit: 947 x 1002 km, 82.9° (Epoch: 13 June)

Event Time Altitude Azimuth Distance (km) Brightness Sun altitude
Rises 19:16:26 0° 356° (N) 3,639 7.6 -4.7°
Reaches altitude 10° 19:19:06 10° 3° (N) 2,685 6.8 -5.1°
Maximum altitude 19:24:54 42° 74° (ENE) 1,323 4.5 -5.9°
Drops below altitude 10° 19:30:38 10° 144° (SE) 2,667 5.7 -6.7°
Enters shadow 19:31:42 - 148° (SSE) 3,044 6.0 -6.9°
